Fairbanks Eiels, AK

9:19 AM AKST on December 05, 2019 (GMT -0900)
Eielson Air Force Base

Weather History for PAEI - October, 2019

Change the Weather History Date:

Wednesday, October 2, 2019

  Actual Average Record
Temperature  
Mean Temperature 36 °F -  
Max Temperature 38 °F 43 °F 75 °F (2003)
Min Temperature 33 °F 27 °F 8 °F (1974)
Degree Days  
Heating Degree Days 29    
Moisture  
Dew Point 34 °F    
Average Humidity 93    
Maximum Humidity 94    
Minimum Humidity 87    
Precipitation  
Precipitation 0.42 in - - ()
Sea Level Pressure  
Sea Level Pressure 29.84 in    
Wind  
Wind Speed 3 mph (South)    
Max Wind Speed 9 mph    
Max Gust Speed -    
Visibility 7 miles    
Events Rain , Snow    
Averages and records for this station are not official NWS values.
T = Trace of Precipitation, MM = Missing Value Source: NWS Daily Summary

Daily Weather History Graph

Daily Weather History Graph

Search for Another Location

Airport or City:

Astronomy

Oct. 02, 2019 Rise Set
Actual Time 8:00 AM AKDT 7:13 PM AKDT
Civil Twilight 7:12 AM AKDT 8:01 PM AKDT
Nautical Twilight 6:14 AM AKDT 8:58 PM AKDT
Astronomical Twilight 5:12 AM AKDT 9:59 PM AKDT
Moon 2:21 PM AKDT (10/2) 8:24 PM AKDT (10/2)
Length of Visible Light 12h 49m
Length of Day
11h 12m
Waxing Crescent, 22% of the Moon is Illuminated
Oct 2
Waxing Crescent
Oct 5
First Quarter
Oct 13
Full
Oct 21
Last Quarter
Oct 27
New

Hourly Weather History & Observations

Time (AKDT) Temp. Windchill Dew Point Humidity Pressure Visibility Wind Dir Wind Speed Gust Speed Precip Events Conditions
12:11 AM 39.2 °F - 37.4 °F 93% 29.75 in 10.0 mi Calm Calm - N/A Rain Light Rain
12:56 AM 38.5 °F - 36.9 °F 94% 29.76 in 10.0 mi Calm Calm - 0.04 in Rain Light Rain
1:56 AM 38.3 °F - 36.1 °F 92% 29.75 in 10.0 mi Calm Calm - 0.02 in Rain Light Rain
2:26 AM 37.4 °F - 35.6 °F 93% 29.77 in 10.0 mi Calm Calm - N/A Rain Light Rain
2:59 AM 37.9 °F - 36.1 °F 93% 29.77 in 10.0 mi Calm Calm - 0.02 in Rain Light Rain
3:02 AM 37.4 °F - 35.6 °F 93% 29.77 in 10.0 mi Calm Calm - N/A Rain Light Rain
3:30 AM 37.4 °F - 35.6 °F 93% 29.77 in 10.0 mi Calm Calm - N/A Rain Light Rain
3:56 AM 37.9 °F - 36.3 °F 94% 29.77 in 10.0 mi Calm Calm - 0.03 in Rain Light Rain
4:56 AM 37.2 °F 34.7 °F 35.1 °F 92% 29.78 in 10.0 mi WNW 3.5 mph - 0.02 in Rain Light Rain
5:02 AM 37.4 °F - 35.6 °F 93% 29.75 in 10.0 mi Calm Calm - N/A Rain Light Rain
5:41 AM 37.4 °F - 33.8 °F 87% 29.78 in 10.0 mi Calm Calm - N/A Rain Light Rain
5:56 AM 36.9 °F 34.3 °F 34.7 °F 92% 29.78 in 10.0 mi WSW 3.5 mph - 0.03 in Rain Light Rain
6:56 AM 36.5 °F - 34.7 °F 93% 29.80 in 10.0 mi Calm Calm - 0.03 in Rain Light Rain
7:23 AM 35.6 °F 30.7 °F 33.8 °F 93% 29.77 in 10.0 mi Variable 5.8 mph - 0.03 in Rain Light Rain
7:37 AM 35.6 °F 31.7 °F 33.8 °F 93% 29.77 in 10.0 mi SSE 4.6 mph - N/A Rain Light Rain
7:49 AM 35.6 °F 31.7 °F 33.8 °F 93% 29.78 in 5.0 mi Variable 4.6 mph - N/A Rain Light Rain
7:56 AM 35.2 °F 32.4 °F 33.4 °F 93% 29.81 in 10.0 mi South 3.5 mph - 0.02 in Rain Light Rain
7:57 AM 35.6 °F 31.7 °F 33.8 °F 93% 29.78 in 5.0 mi Variable 4.6 mph - 0.02 in Rain Light Rain
8:11 AM 35.6 °F 30.7 °F 33.8 °F 93% 29.81 in 8.0 mi South 5.8 mph - N/A Rain Light Rain
8:31 AM 35.6 °F 30.7 °F 33.8 °F 93% 29.78 in 5.0 mi Variable 5.8 mph - N/A Rain Light Rain
8:56 AM 35.6 °F 29.9 °F 33.8 °F 93% 29.79 in 5.0 mi Variable 6.9 mph - 0.02 in Rain Light Rain
9:11 AM 33.8 °F 28.6 °F 32.0 °F 93% 29.82 in 10.0 mi SSW 5.8 mph - N/A Rain Light Rain
9:27 AM 33.8 °F 27.7 °F 32.0 °F 93% 29.79 in 4.0 mi Variable 6.9 mph - N/A Snow Light Snow
9:56 AM 33.8 °F 28.6 °F 32.0 °F 93% 29.80 in 3.0 mi Variable 5.8 mph - 0.03 in Rain , Snow Light Rain
10:11 AM 33.8 °F 27.7 °F 32.0 °F 93% 29.83 in 8.0 mi SSW 6.9 mph - N/A Snow Light Snow
10:56 AM 34.2 °F 30.0 °F 32.4 °F 93% 29.83 in 7.0 mi SSW 4.6 mph - 0.02 in Snow Light Snow
10:57 AM 33.8 °F 29.6 °F 32.0 °F 93% 29.80 in 2.5 mi Variable 4.6 mph - 0.01 in Snow Light Snow
11:26 AM 33.8 °F 29.6 °F 32.0 °F 93% 29.84 in 9.0 mi SSW 4.6 mph - N/A Rain Light Rain
11:29 AM 33.8 °F 28.6 °F 32.0 °F 93% 29.81 in 2.8 mi Variable 5.8 mph - N/A Rain , Snow Light Rain
11:38 AM 35.6 °F 31.7 °F 33.8 °F 93% 29.81 in 3.0 mi SSW 4.6 mph - N/A Rain , Snow Light Rain
11:41 AM 35.6 °F 31.7 °F 33.8 °F 93% 29.84 in 8.0 mi SSW 4.6 mph - N/A Rain Light Rain
11:56 AM 35.6 °F 32.8 °F 33.8 °F 93% 29.82 in 3.0 mi Variable 3.5 mph - 0.03 in Rain , Snow Light Rain
12:18 PM 35.6 °F 32.8 °F 33.8 °F 93% 29.86 in 3.0 mi SSW 3.5 mph - N/A Rain , Snow Light Rain
12:56 PM 34.9 °F 29.0 °F 32.7 °F 92% 29.87 in 3.0 mi SSW 6.9 mph - 0.03 in Rain , Snow Light Rain
1:31 PM 33.8 °F 28.6 °F 32.0 °F 93% 29.88 in 2.0 mi SW 5.8 mph - N/A Rain , Snow Light Rain
1:47 PM 35.6 °F 29.9 °F 33.8 °F 93% 29.88 in 3.0 mi SW 6.9 mph - N/A Snow Light Snow
1:56 PM 35.8 °F 30.9 °F 32.9 °F 89% 29.89 in 3.0 mi SSW 5.8 mph - 0.02 in Snow Light Snow
2:26 PM 33.8 °F 27.7 °F 32.0 °F 93% 29.89 in 3.0 mi SSW 6.9 mph - N/A Snow Light Snow
2:56 PM 35.2 °F - 33.4 °F 93% 29.90 in 3.0 mi Calm Calm - 0.03 in Rain , Snow Light Rain
3:56 PM 37.0 °F 31.6 °F 34.7 °F 91% 29.91 in 3.0 mi WSW 6.9 mph - 0.00 in Rain , Snow Light Rain
4:56 PM 36.9 °F 30.1 °F 34.5 °F 91% 29.93 in 3.0 mi West 9.2 mph - 0.00 in Rain , Snow Light Rain
5:56 PM 36.9 °F 33.1 °F 34.7 °F 92% 29.91 in 10.0 mi Variable 4.6 mph - 0.00 in Rain , Snow Light Rain
6:56 PM 37.0 °F - 34.9 °F 92% 29.92 in 10.0 mi Calm Calm - 0.02 in Rain Light Rain
7:21 PM 37.4 °F 34.9 °F 35.6 °F 93% 29.92 in 10.0 mi South 3.5 mph - N/A Rain Light Rain
7:56 PM 36.9 °F 33.1 °F 35.1 °F 93% 29.93 in 10.0 mi SE 4.6 mph - 0.01 in Rain Light Rain
8:42 PM 35.6 °F 30.7 °F 33.8 °F 93% 29.93 in 10.0 mi ESE 5.8 mph - N/A Rain Light Rain
8:56 PM 35.8 °F 30.9 °F 34.0 °F 93% 29.94 in 10.0 mi SSE 5.8 mph - 0.00 in   Overcast
9:26 PM 35.6 °F 29.9 °F 33.8 °F 93% 29.94 in 10.0 mi East 6.9 mph - N/A   Overcast
9:56 PM 35.6 °F 31.7 °F 33.8 °F 93% 29.94 in 10.0 mi SE 4.6 mph - N/A   Overcast
10:26 PM 35.6 °F 31.7 °F 33.8 °F 93% 29.94 in 10.0 mi SE 4.6 mph - N/A   Overcast
10:56 PM 35.1 °F 29.3 °F 33.3 °F 93% 29.94 in 10.0 mi SE 6.9 mph - N/A   Overcast
11:56 PM 35.1 °F 31.0 °F 33.3 °F 93% 29.95 in 10.0 mi SE 4.6 mph - N/A   Overcast